www.pogodaiklimat.ru

Погода и климат >> Архив погоды >> Иран >> Тегеран


АРХИВ ПОГОДЫ в Тегеране

Время (UTC), дата Ветер
(напр.,м/с)
 
Видим.   Явления Облачность Т
(С)
Тd
(С)
f
(%)
Тe
(С)
Тes
(С)
Комфортность P
(гПа)
Po
(гПа)
Тmin
(С)
Tmax
(С)
R
(мм)
R24
(мм)
S
(см)
15 10.09 ЮВ 4 12 км ясно +26.6 +5.0 25 +26 +26 жарко 1007.1 879.9 +28.0
18 10.09 С 2 12 км ясно +23.8 +6.6 33 +24 +24 комфорт 1008.7 881.5
21 10.09 ЮВ 3 12 км 3/0
[Ac trans]
+24.6 +4.9 28 +24 +24 комфорт 1008.3 881.8
00 11.09 штиль 0 12 км ясно +21.2 +5.1 35 +22 +22 комфорт 1008.9 882.0
03 11.09 СЗ 2 10 км ясно +20.3 +6.3 40 +22 +22 комфорт 1010.6 883.2 +20.0
06 11.09 Ю 4 10 км 1/1 1050 м
[Cu hum]
+24.1 +5.5 30 +24 +30 комфорт 1011.8 884.4
09 11.09 ЮВ 3 10 км 1/1 1050 м
[Cu hum]
+26.7 +5.1 25 +26 +37 жарко 1009.7 883.2
12 11.09 В 3 12 км 1/1 1050 м
[Cu hum]
+27.9 +4.9 23 +27 +31 жарко 1008.1 881.4
15 11.09 ЮВ 3 12 км ясно +27.3 +2.4 20 +26 +26 жарко 1008.8 881.6 +28.6
18 11.09 штиль 0 12 км 1/0
[Ac trans]
+24.4 +4.2 27 +24 +24 комфорт 1009.7 882.7
21 11.09 СЗ 2 12 км ясно +21.2 +6.3 38 +22 +22 комфорт 1009.7 882.7
00 12.09 С 2 10 км ясно +19.6 +7.7 46 +21 +21 комфорт 1009.6 882.6
03 12.09 СЗ 2 10 км 1/0
[Ac trans]
+18.2 +7.9 51 +19 +19 очень
холодно
1011.1 883.4 +17.6
06 12.09 ЮЗ 3 10 км 1/1 1200 м
[Cu hum]
+23.6 +6.0 32 +24 +31 комфорт 1011.4 884.1
09 12.09 ЮВ 6 14 км 1/1 1200 м
[Cu hum]
+26.7 +5.1 25 +26 +31 жарко 1009.5 882.5
12 12.09 ЮВ 3 10 км 1/1 1200 м
[Cu hum]
+27.8 +4.8 23 +27 +31 жарко 1007.5 880.6
15 12.09 Ю 3 15 км 1/1 1200 м
[Sc diur, vesp]
+27.1 +2.2 20 +25 +25 комфорт 1007.6 880.2 +28.6
18 12.09 СЗ 2 10 км ясно +22.2 +7.2 38 +23 +23 комфорт 1008.7 881.3
21 12.09 З 4 10 км ясно +17.5 +7.3 51 +17 +17 очень
холодно
1009.2 881.5
00 13.09 СЗ 3 10 км 3/0
[Ac trans]
+17.2 +7.3 52 +17 +17 холодно 1009.2 881.6
03 13.09 З 3 10 км 4/1 1200 м
[Cu hum Ac trans]
+16.0 +7.5 57 +16 +16 очень
холодно
1010.5 882.4 +15.6
06 13.09 ЮВ 2 10 км 5/1 1200 м
[Cu hum Ac trans]
+22.8 +6.1 34 +23 +30 комфорт 1011.8 883.9
09 13.09 Ю 5 10 км 3/3 1200 м
[Cu hum]
+25.0 +6.2 30 +25 +30 комфорт 1011.3 882.9
12 13.09 Ю 5 15 км 3/3 1200 м
[Cu hum]
+27.6 +4.6 23 +26 +29 жарко 1008.4 880.8
15 13.09 ЮЗ 2 10 км 1/1 1200 м
[Cu hum]
+26.2 +1.5 20 +25 +25 комфорт 1009.7 881.3 +27.8
18 13.09 З 4 10 км 6/0
[Ac trans]
+21.5 +7.0 39 +22 +22 комфорт 1010.4 882.6
21 13.09 З 4 10 км 4/0
[Ac trans]
+19.0 +7.4 47 +19 +19 холодно 1010.7 883.0
00 14.09 штиль 0 10 км 5/0
[Ac trans]
+18.0 +7.4 50 +18 +18 холодно 1010.8 883.1
03 14.09 З 2 10 км 4/1 1200 м
[Sc diur, vesp Ac trans]
+18.1 +7.5 50 +19 +19 холодно 1012.5 884.4 +17.6
06 14.09 З 2 12 км 3/3 1050 м
[Cu med, cong]
+23.0 +6.3 34 +24 +30 комфорт 1014.0 885.7
09 14.09 Ю 4 15 км 3/3 1050 м
[Cu hum]
+25.5 +5.7 28 +25 +32 комфорт 1013.0 884.8
12 14.09 Ю 2 15 км 1/1 1050 м
[Cu hum]
+27.4 +5.1 24 +26 +32 жарко 1011.3 883.4
15 14.09 ЮЗ 4 10 км ясно +26.4 +4.2 24 +25 +25 комфорт 1011.1 883.1 +28.0
18 14.09 ЮВ 2 10 км ясно +24.5 +5.3 29 +24 +24 комфорт 1011.6 884.1
21 14.09 С 2 10 км ясно +21.8 +8.0 41 +23 +23 комфорт 1011.9 884.5
00 15.09 СВ 2 10 км ясно +21.2 +7.8 42 +22 +22 комфорт 1011.4 884.3
03 15.09 СВ 2 10 км ясно +20.6 +6.5 40 +22 +22 комфорт 1013.2 885.5 +19.5
06 15.09 ЮВ 4 10 км ясно +25.0 +5.2 28 +25 +31 комфорт 1014.0 886.6
09 15.09 ЮЗ 3 10 км 1/1 1050 м
[Cu hum]
+27.2 +4.9 24 +26 +37 жарко 1012.6 885.3
12 15.09 З 4 12 км 1/1 1050 м
[Cu hum]
+29.0 +3.8 20 +27 +31 жарко 1010.7 883.8
15 15.09 ЮЗ 3 10 км ясно +28.2 +3.8 21 +27 +27 жарко 1011.1 883.9 +29.6
18 15.09 С 2 10 км ясно +24.1 +7.7 35 +24 +24 комфорт 1012.5 885.3
21 15.09 Ю 2 10 км ясно +23.2 +6.1 33 +24 +24 комфорт 1012.6 885.6
00 16.09 СВ 2 10 км ясно +22.5 +6.7 36 +23 +23 комфорт 1012.3 885.6
03 16.09 С 2 10 км ясно +21.2 +8.5 44 +22 +23 комфорт 1013.6 886.4 +20.0
06 16.09 ЮВ 2 10 км ясно +27.7 +3.4 21 +26 +35 жарко 1014.4 887.4
09 16.09 В 3 12 км 1/1 1200 м
[Cu hum]
+29.9 +2.2 17 +28 +39 жарко 1012.9 886.3
12 16.09 ЮВ 4 14 км 1/1 1000 м
[Sc diur, vesp]
+31.4 +1.7 15 +29 +32 жарко 1010.7 884.5
15 16.09 В 2 10 км 1/0
[Ac trans]
+29.5 +1.1 16 +27 +27 жарко 1010.7 883.9 +32.2
18 16.09 СВ 3 10 км 1/0
[Ac trans]
+26.6 +3.2 22 +25 +25 комфорт 1011.1 885.0
21 16.09 С 3 10 км 1/0
[Ac trans]
+24.6 +3.8 26 +24 +24 комфорт 1010.8 884.8
00 17.09 С 2 10 км ясно +24.4 +1.3 22 +23 +23 комфорт 1009.7 884.0
03 17.09 С 2 10 км 1/0
[Ci fib]
+22.6 +5.5 33 +23 +23 комфорт 1011.3 884.8 +21.6
06 17.09 ЮВ 3 12 км 1/0
[Ci fib]
+29.5 +0.2 15 +27 +34 жарко 1011.3 885.5
09 17.09 ЮВ 2 10 км 4/1 1200 м
[Cu hum Ci fib]
+31.6 -0.1 13 +28 +41 жарко 1011.3 883.9

 

Местоположение метеостанции Тегеран (Иран): широта 35.68 долгота 51.32 высота над уровнем моря 1191 м.

В архиве по умолчанию представлена погода в Тегеране за последнюю неделю. Архивные данные за месяц целиком и за предыдущие месяцы, начиная с января 2011 года, Вы можете получить, выбрав интересующий диапазон дат из раскрывающегося списка и нажав кнопку "Ввод!".


*Определитесь, кто Вы:
робот инопланетянин человек

Внимание! Время в таблицах - всемирное. Для получения местного времени необходимо прибавить поправку, которая равна 3.5 ч.

Смотрите также архив погоды в соседних городах и на ближайших метеорологических станциях:

Погода в Ноушехре (Иран) (109 км)
Погода в Казвине (Иран) (135 км)
Погода в Рамсаре (Иран) (148 км)
Погода в Эскандар Кола (Иран) (160 км)
Погода в Бабольсере (Иран) (166 км)
Погода в Семнане (Иран) (187 км)
Погода в Кашане (Иран) (189 км)
Погода в Араке (Иран) (226 км)
Погода в Реште (Иран) (227 км)
Погода в Энзели (Иран) (259 км)

Пояснения к столбцам:

Ветер - указаны скорость ветра в м/с - средняя за 10 мин, порывы в срок и между сроками (в фигурных скобках) и направление, откуда дует ветер: С - северный, СВ - северо-восточный, В - восточный, ЮВ - юго-восточный, Ю - южный, ЮЗ - юго-западный, З - западный, СЗ - северо-западный.
Видимость - горизонтальная дальность видимости в метрах или километрах. При видимости от 1 до 10 км при отсутствии осадков обычно наблюдается дымка, при ухудшении видимости до 1 км и менее - туман. В сухую погоду видимость может ухудшаться дымом, пылью или мглою.
Явления - указаны атмосферные явления, наблюдавшиеся в срок или в последний час перед сроком; фигурными скобками обозначены явления, наблюдавшиеся между сроками (за 1-3 часа до срока); квадратными скобками обозначены град или гололедные отложения с указанием их диаметра в мм.
Облачность - указаны через наклонную черту общая и нижняя облачность в баллах и высота нижней границы облаков в метрах; квадратными скобками обозначены формы облаков: Ci - перистые, Cs - перисто-слоистые, Cc - перисто-кучевые, Ac - высококучевые, As - высокослоистые, Sc - слоисто-кучевые, Ns - слоисто-дождевые, Cu - кучевые, Cb - кучево-дождевые. Подробнее классификацию облаков см. в Атласе облаков (PDF).
T - Температура воздуха - температура, измеренная на высоте 2 м над землей.
Td - Температура точки росы - температура, при понижении до которой содержащийся в воздухе водяной пар достигнет насыщения.
f - Относительная влажность воздуха - влажноcть воздуха, измеренная на высоте 2 м над землей.
Te - Эффективная температура - температура, которую ощущает одетый по сезону человек в тени. Характеристика душности погоды. При расчете учитывается влияние влажности воздуха и скорости ветра на теплоощущения человека.
Tes - Эффективная температура на солнце - температура, которую ощущает человек, с поправкой на солнечный нагрев. Характеристика знойности погоды. Зависит от высоты солнца над горизонтом, облачности и скорости ветра. Ночью, в пасмурную погоду, а также при ветре 12 м/с и более поправка равна нулю.
P - Атмосферное давление - приведенное к уровню моря атмосферное давление.
Po - Атмосферное давление - измеренное на уровне метеостанции атмосферное давление.
Tmin - Минимальная температура - минимум температуры воздуха на высоте 2 м над землей.
Tmax - Максимальная температура - максимум температуры воздуха на высоте 2 м над землей.
R - Количество осадков - Количество выпавших осадков за период времени, мм. При наведении курсора мыши на число - период времени, за который выпало указанное количество осадков.
R24 - Количество осадков - Количество выпавших осадков за 24 часа, мм.
S - Снежный покров - Высота снежного покрова, см. При наведении курсора мыши на число - состояние снежного покрова и степень покрытия местности в баллах.